Home > Weather > Altdorf > Past weeks

Flag for Switzerland Past Weather in Altdorf, Uri, Switzerland — Yesterday and Last 2 Weeks

Now
73 °F

Partly sunny.


Feels Like: 75 °F
Forecast: 61 / 80 °F
Wind: 2 mph from North

Location: Altdorf

Current Time: Jul 25, 2016 at 6:04:01 PM

Latest Report: Jul 25, 2016 at 5:00 PM


Visibility: 16 mi

Pressure: 30.06 "Hg

Humidity: 69%

Dew Point: 62 °F

Location of AltdorfLocation

Past Weather in Altdorf — Graph

°F

Altdorf Temperature Yesterday

Maximum temperature yesterday: 78 °F (at 2:00 PM)
Minimum temperature yesterday: 63 °F (at 6:00 AM)
Average temperature yesterday: 70 °F

High & Low Weather Summary for the Past Weeks

 TemperatureHumidityPressure
High88 °F (Jul 20, 6:00 PM)96% (Jul 23, 5:00 AM)30.38 "Hg (Jul 23, 5:00 AM)
Low45 °F (Jul 16, 5:00 AM)35% (Jul 20, 6:00 PM)29.84 "Hg (Jul 10, 7:00 PM)
Average66 °F77%30.08 "Hg
* Reported Jul 10 4:00 PM — Jul 25 4:00 PM, Altdorf, Weather by CustomWeather, © 2016

Note: Actual official high and low records may vary slightly from our data, if they occured in-between our weather recording intervals... More about our weather records

Advertising

Altdorf Weather History for the Previous 24 Hours

Scroll right to see more
 ConditionsComfort  
Time TempWeatherWind HumidityBarometerVisibility
4:00 PM
Mon, Jul 25
72 °FMild.3 mph74%30.06 "HgN/A
3:00 PM72 °FMild.2 mph76%30.08 "HgN/A
2:00 PM71 °FMild.3 mph76%30.08 "HgN/A
1:00 PM70 °FMild.2 mph78%30.09 "HgN/A
12:00 PM70 °FMild.3 mph81%30.09 "HgN/A
11:00 AM68 °FOvercast.3 mph87%30.10 "Hg11 mi
10:00 AM67 °FMild.7 mph88%30.11 "HgN/A
9:00 AM67 °FMild.2 mph89%30.11 "HgN/A
8:00 AM66 °FOvercast.No wind91%30.11 "Hg9 mi
7:00 AM65 °FMild.1 mph95%30.11 "HgN/A
6:00 AM65 °FMild.1 mph93%30.11 "HgN/A
5:00 AM64 °FOvercast.1 mph96%30.11 "Hg9 mi
4:00 AM65 °FMild.1 mph94%30.11 "HgN/A
3:00 AM65 °FMild.1 mph95%30.11 "HgN/A
2:00 AM66 °FOvercast.No wind95%30.11 "Hg9 mi
1:00 AM67 °FMild.2 mph94%30.13 "HgN/A
12:00 AM67 °FMild.1 mph93%30.13 "HgN/A
11:00 PM
Sun, Jul 24
67 °FLight rain. Overcast.5 mph92%30.13 "Hg9 mi
10:00 PM67 °FMild.1 mph90%30.10 "HgN/A
9:00 PM68 °FMild.1 mph89%30.08 "HgN/A
8:00 PM71 °FOvercast.3 mph75%30.04 "Hg12 mi
7:00 PM74 °FMild.6 mph66%30.01 "HgN/A
6:00 PM76 °FMild.7 mph60%30.00 "HgN/A
Weather by CustomWeather, © 2016

See weather overviewHow to use our weather pages